This demonstration page uses our WeatherBlox Daily Observations layout. Learn more.

Left ArrowRight Arrow

Hourly Observations for May 9, 2021

Temp ( °F °C ) Dew Point ( °F °C ) Humidity (%) Winds ( mph kmh ) Pressure ( in mb ) Visibility ( mi km ) Precip ( " mm )
12:53 am 00:53 Partly Cloudy 69 20.6 18 -7.8 14 14 WSW 12 19 29.62 1003 10 16 0.00 0.00
1:53 am 01:53 Clear 69 20.6 16 -8.9 13 13 WSW 9 15 29.63 1003 10 16 0.00 0.00
2:53 am 02:53 Clear 63 17.2 17 -8.3 17 17 SSW 8 13 29.64 1004 10 16 0.00 0.00
3:53 am 03:53 Clear 62 16.7 16 -8.9 17 17 Calm 29.65 1004 10 16 0.00 0.00
4:53 am 04:53 Clear 62 16.7 17 -8.3 17 17 S 3 6 29.67 1005 10 16 0.00 0.00
5:53 am 05:53 Clear 59 15 19 -7.2 21 21 WSW 7 11 29.68 1005 10 16 0.00 0.00
6:53 am 06:53 Clear 52 11.1 20 -6.7 28 28 WNW 10 17 29.72 1006 10 16 0.00 0.00
7:53 am 07:53 Sunny 58 14.4 20 -6.7 23 23 NNW 9 15 29.74 1007 10 16 0.00 0.00
8:53 am 08:53 Sunny 67 19.4 33 0.6 28 28 NNE 12 19 29.77 1008 10 16 0.00 0.00
9:53 am 09:53 Sunny 74 23.3 41 5 31 31 NE 15 24 29.79 1009 10 16 0.00 0.00
10:53 am 10:53 Sunny 77 25 41 5 28 28 NE 10 17 29.79 1009 10 16 0.00 0.00
11:53 am 11:53 Sunny 80 26.7 41 5 25 25 NE 7 11 29.80 1009 10 16 0.00 0.00
12:53 pm 12:53 Sunny 83 28.3 39 3.9 21 21 NE 8 13 29.80 1009 10 16 0.00 0.00
1:53 pm 13:53 Sunny 86 30 37 2.8 18 18 undefined N/A 29.77 1008 10 16 0.00 0.00
2:53 pm 14:53 Sunny 89 31.7 34 1.1 14 14 NNW 10 17 29.75 1007 10 16 0.00 0.00
5:53 pm 17:53 Sunny 91 32.8 29 -1.7 11 11 N 5 7 29.68 1005 10 16 0.00 0.00
6:53 pm 18:53 Sunny 90 32.2 27 -2.8 10 10 E 7 11 29.68 1005 10 16 0.00 0.00
7:53 pm 19:53 Sunny 88 31.1 26 -3.3 10 10 E 6 9 29.67 1005 10 16 0.00 0.00
8:53 pm 20:53 Clear 82 27.8 27 -2.8 13 13 ESE 9 15 29.67 1005 10 16 0.00 0.00
9:53 pm 21:53 Clear 80 26.7 31 -0.6 17 17 ESE 14 22 29.69 1005 10 16 0.00 0.00
10:53 pm 22:53 Clear 76 24.4 50 10 40 40 ESE 18 30 29.73 1007 10 16 0.00 0.00
11:53 pm 23:53 Clear 72 22.2 49 9.4 44 44 E 15 24 29.75 1008 10 16 0.00 0.00

Powered by AerisWeather